| time (UTC) | temp F | wind direction | speed MPH | gust MPH | rain 1hr in | rain 24hr in | rain mn in | humidity % | barometer mb |
| 20260506021914 | 58 | 254 | 5.0 | 10.0 | 0.00 | 0.00 | 0.00 | 79 | 1012.4 |
| 20260506020414 | 58 | 246 | 6.0 | 9.0 | 0.00 | 0.00 | 0.00 | 80 | 1012.4 |
| 20260506014913 | 58 | 246 | 4.0 | 6.0 | 0.00 | 0.00 | 0.00 | 79 | 1012.3 |
| 20260506011913 | 58 | 225 | 5.0 | 9.0 | 0.00 | 0.00 | 0.00 | 78 | 1012.2 |
| 20260506010413 | 58 | 275 | 5.0 | 17.0 | 0.00 | 0.00 | 0.00 | 79 | 1012.1 |
| 20260506003413 | 58 | 227 | 9.0 | 12.0 | 0.00 | 0.00 | 0.00 | 78 | 1012.2 |
| 20260506001913 | 58 | 228 | 8.0 | 15.0 | 0.00 | 0.00 | 0.00 | 78 | 1012.3 |
| 20260505234912 | 58 | 269 | 3.0 | 8.0 | 0.00 | 0.00 | 0.00 | 80 | 1012.6 |
| 20260505233412 | 58 | 287 | 2.0 | 6.0 | 0.00 | 0.00 | 0.00 | 80 | 1012.6 |
| 20260505231912 | 58 | 289 | 4.0 | 7.0 | 0.00 | 0.00 | 0.00 | 79 | 1012.7 |
| 20260505230412 | 58 | 254 | 3.0 | 7.0 | 0.00 | 0.00 | 0.00 | 79 | 1012.9 |
| 20260505224912 | 58 | 259 | 6.0 | 13.0 | 0.00 | 0.00 | 0.00 | 78 | 1012.7 |
| 20260505223412 | 59 | 245 | 9.0 | 17.0 | 0.00 | 0.00 | 0.00 | 77 | 1012.5 |
| 20260505221911 | 58 | 268 | 3.0 | 6.0 | 0.00 | 0.00 | 0.00 | 78 | 1012.5 |
| 20260505220411 | 58 | 263 | 2.0 | 8.0 | 0.00 | 0.00 | 0.00 | 78 | 1012.5 |
| 20260505214911 | 59 | 304 | 1.0 | 12.0 | 0.00 | 0.00 | 0.00 | 77 | 1012.6 |
| 20260505213411 | 58 | 286 | 6.0 | 10.0 | 0.00 | 0.00 | 0.00 | 79 | 1012.8 |
| 20260505211911 | 58 | 63 | 1.0 | 6.0 | 0.00 | 0.00 | 0.00 | 81 | 1012.9 |
| 20260505210411 | 58 | 46 | 3.0 | 5.0 | 0.00 | 0.00 | 0.00 | 80 | 1013.0 |
| 20260505204911 | 58 | 13 | 2.0 | 3.0 | 0.00 | 0.00 | 0.00 | 80 | 1013.1 |
| 20260505203411 | 58 | 256 | 6.0 | 14.0 | 0.00 | 0.00 | 0.00 | 79 | 1013.0 |
| 20260505201911 | 58 | 225 | 7.0 | 13.0 | 0.00 | 0.00 | 0.00 | 79 | 1013.0 |
| 20260505200411 | 58 | 220 | 5.0 | 12.0 | 0.00 | 0.00 | 0.00 | 79 | 1012.9 |
| 20260505193414 | 58 | 292 | 9.0 | 15.0 | 0.00 | 0.00 | 0.00 | 78 | 1012.9 |
| 20260505191911 | 58 | 254 | 2.0 | 7.0 | 0.00 | 0.00 | 0.00 | 77 | 1012.9 |
| 20260505190411 | 58 | 234 | 2.0 | 4.0 | 0.00 | 0.00 | 0.00 | 77 | 1012.7 |
| 20260505184911 | 58 | 284 | 5.0 | 9.0 | 0.00 | 0.00 | 0.00 | 77 | 1012.7 |
| 20260505183411 | 58 | 276 | 3.0 | 6.0 | 0.00 | 0.00 | 0.00 | 76 | 1012.7 |
| 20260505181911 | 58 | 297 | 2.0 | 7.0 | 0.00 | 0.00 | 0.00 | 76 | 1012.6 |
| 20260505180411 | 58 | 264 | 2.0 | 7.0 | 0.00 | 0.00 | 0.00 | 76 | 1012.7 |
| 20260505174911 | 59 | 284 | 3.0 | 9.0 | 0.00 | 0.00 | 0.00 | 75 | 1012.6 |
| 20260505173411 | 60 | 263 | 3.0 | 6.0 | 0.00 | 0.00 | 0.00 | 74 | 1012.7 |
| 20260505171911 | 60 | 301 | 3.0 | 8.0 | 0.00 | 0.00 | 0.00 | 73 | 1012.7 |
| 20260505170411 | 60 | 279 | 5.0 | 9.0 | 0.00 | 0.00 | 0.00 | 72 | 1012.8 |
| 20260505164913 | 60 | 302 | 7.0 | 11.0 | 0.00 | 0.00 | 0.00 | 71 | 1012.8 |
| 20260505163413 | 60 | 229 | 4.0 | 9.0 | 0.00 | 0.00 | 0.00 | 71 | 1012.6 |
| 20260505161912 | 61 | 263 | 7.0 | 10.0 | 0.00 | 0.00 | 0.00 | 69 | 1012.9 |
| 20260505160412 | 62 | 294 | 6.0 | 11.0 | 0.00 | 0.00 | 0.00 | 68 | 1013.0 |
| 20260505140412 | 63 | 273 | 6.0 | 11.0 | 0.00 | 0.00 | 0.00 | 64 | 1013.3 |
| 20260505124911 | 65 | 302 | 10.0 | 17.0 | 0.00 | 0.00 | 0.00 | 61 | 1013.9 |
| 20260505123410 | 65 | 304 | 6.0 | 17.0 | 0.00 | 0.00 | 0.00 | 60 | 1013.9 |
| 20260505121910 | 65 | 293 | 7.0 | 22.0 | 0.00 | 0.00 | 0.00 | 59 | 1014.3 |
| 20260505120410 | 65 | 224 | 6.0 | 13.0 | 0.00 | 0.00 | 0.00 | 59 | 1014.3 |
| 20260505114910 | 65 | 263 | 11.0 | 16.0 | 0.00 | 0.30 | 0.00 | 59 | 1014.4 |
| 20260505113410 | 64 | 273 | 2.0 | 12.0 | 0.00 | 0.00 | 0.00 | 61 | 1014.5 |
| 20260505111910 | 64 | 222 | 7.0 | 10.0 | 0.00 | 0.00 | 0.00 | 59 | 1014.5 |
| 20260505110410 | 65 | 272 | 11.0 | 16.0 | 0.00 | 0.00 | 0.00 | 59 | 1014.5 |
| 20260505101910 | 66 | 270 | 11.0 | 17.0 | 0.00 | 0.00 | 0.00 | 55 | 1014.2 |
| 20260505100409 | 66 | 275 | 9.0 | 17.0 | 0.00 | 0.00 | 0.00 | 53 | 1013.9 |
| 20260505094913 | 67 | 242 | 14.0 | 19.0 | 0.00 | 0.00 | 0.00 | 52 | 1013.8 |
| 20260505093412 | 68 | 273 | 12.0 | 26.0 | 0.00 | 0.00 | 0.00 | 50 | 1013.8 |
| 20260505090412 | 66 | 225 | 14.0 | 19.0 | 0.00 | 0.00 | 0.00 | 55 | 1013.5 |
| 20260505084912 | 67 | 235 | 9.0 | 21.0 | 0.00 | 0.00 | 0.00 | 56 | 1013.6 |
| 20260505083412 | 67 | 256 | 9.0 | 15.0 | 0.00 | 0.00 | 0.00 | 57 | 1013.6 |
| 20260505081912 | 66 | 246 | 6.0 | 13.0 | 0.00 | 0.00 | 0.00 | 58 | 1013.6 |
| 20260505080411 | 65 | 254 | 6.0 | 11.0 | 0.00 | 0.00 | 0.00 | 59 | 1013.7 |
| 20260505074911 | 65 | 252 | 7.0 | 17.0 | 0.00 | 0.00 | 0.00 | 60 | 1013.7 |
| 20260505073411 | 64 | 242 | 7.0 | 15.0 | 0.00 | 0.00 | 0.00 | 58 | 1013.7 |
| 20260505071911 | 64 | 270 | 5.0 | 12.0 | 0.00 | 0.00 | 0.00 | 60 | 1013.8 |
| 20260505070411 | 63 | 211 | 8.0 | 14.0 | 0.00 | 0.00 | 0.00 | 59 | 1013.7 |
| 20260505064911 | 63 | 276 | 6.0 | 14.0 | 0.00 | 0.00 | 0.00 | 59 | 1013.6 |
| 20260505063411 | 62 | 182 | 5.0 | 19.0 | 0.00 | 0.00 | 0.00 | 59 | 1013.6 |
| 20260505061910 | 62 | 317 | 6.0 | 11.0 | 0.00 | 0.00 | 0.00 | 59 | 1013.6 |
| 20260505060410 | 62 | 248 | 9.0 | 14.0 | 0.00 | 0.00 | 0.00 | 57 | 1013.7 |
| 20260505054910 | 62 | 306 | 4.0 | 10.0 | 0.00 | 0.00 | 0.00 | 57 | 1013.8 |
| 20260505053410 | 61 | 295 | 2.0 | 7.0 | 0.00 | 0.00 | 0.00 | 57 | 1013.6 |
| 20260505051910 | 61 | 279 | 3.0 | 12.0 | 0.00 | 0.00 | 0.00 | 57 | 1013.6 |
| 20260505033414 | 61 | 290 | 6.0 | 12.0 | 0.00 | 0.00 | 0.00 | 56 | 1013.4 |
| 20260505030414 | 61 | 264 | 4.0 | 8.0 | 0.00 | 0.00 | 0.00 | 55 | 1013.7 |